Regional Weather Roundup
Issued by NWS

Home | Current Version | Previous Version | Text Only | Print | Product List | Glossary On
Versions: 1 2 3 4 5 6 7 8 9 10 11 12 13 14 15 16 17 18 19 20 21 22 23 24 25 26 27 28 29 30 31 32 33 34 35 36 37 38 39 40 41 42 43 44 45 46 47 48 49 50
000
ASUS44 KBMX 262210
RWRAL

ALABAMA REGIONAL WEATHER ROUNDUP
NATIONAL WEATHER SERVICE BIRMINGHAM AL
500 PM CDT THU MAR 26 2015

NOTE: "FAIR" INDICATES FEW OR NO CLOUDS BELOW 12,000 FEET
WITH NO SIGNIFICANT WEATHER AND/OR OBSTRUCTIONS TO VISIBILITY.

THE REMARK "TC" DENOTES TEMPERATURE IN DEGREES CELSIUS.

ALZ001>011-014-016>018-020-262300-
NORTH ALABAMA

CITY           SKY/WX    TMP DP  RH WIND       PRES   REMARKS
MUSCLE SHOALS  CLOUDY    55  48  77 N14G22    29.88R
HUNTSVILLE     CLOUDY    62  54  74 NW20G28   29.81R
DECATUR        CLOUDY    60  54  80 NW18G28   29.83R
HALEYVILLE       N/A     59  55  86 NW9G17    29.85R
GADSDEN        CLOUDY    73  54  49 SW9       29.78F
$$

ALZ012-013-022-023-030>036-040>044-262300-
WEST CENTRAL ALABAMA

CITY           SKY/WX    TMP DP  RH WIND       PRES   REMARKS
TUSCALOOSA     CLOUDY    75  55  49 W3        29.78F
$$

ALZ015-024>027-033>036-040>044-262300-
CENTRAL ALABAMA

CITY           SKY/WX    TMP DP  RH WIND       PRES   REMARKS
BIRMINGHAM     CLOUDY    73  57  57 SW7       29.81F
MONTGOMERY       N/A     76  58  53 S8        29.80F
SHELBY CO ARPT RAIN      68  62  81 CALM      29.80F
MAXWELL AFB    SUNNY     75  58  55 S9        29.79F
GREENVILLE     FAIR      72  62  71 S9        29.80F
$$

ALZ019-021-028-029-037-038-045>048-262300-
EAST CENTRAL ALABAMA

CITY           SKY/WX    TMP DP  RH WIND       PRES   REMARKS
ANNISTON       CLOUDY    73  54  51 SW9       29.81R
ALEXANDER CITY CLOUDY    74  52  44 S8        29.81S
AUBURN         CLOUDY    72  50  46 SW10      29.85S
$$

ALZ051>064-262300-
SOUTHWEST ALABAMA

CITY           SKY/WX    TMP DP  RH WIND       PRES   REMARKS
MOBILE         CLOUDY    67  65  93 S10       29.82F
BROOKLEY FIELD CLOUDY    67  64  90 S8        29.84S
EVERGREEN      CLOUDY    70  63  78 S9        29.80F
$$

ALZ049-050-065>069-262300-
SOUTHEAST ALABAMA

CITY           SKY/WX    TMP DP  RH WIND       PRES   REMARKS
DOTHAN         CLOUDY    67  63  87 S9        29.87S
OZARK          CLOUDY    69  61  76 S9        29.84R
TROY           CLOUDY    73  62  68 S8        29.82S
EUFAULA        FAIR      71  62  73 S8        29.82F
$$



USA.gov is the U.S. government's official web portal to all federal, state and local government web resources and services.